Vertical_Velocity
10 3 1 1 5 1 0 4 5 -4 1 2 0 1 -1 1 -3 -5 -1 -1 6 0 4 1 2 3 1 1 1 0 1 1 1 0 1 0 -1 -0 -0 -1 -2 -2 -0
2 3 2 -0 -0 2 4 -0 1 8 0 2 3 11 8 2 6 4 -0 -0 -1 -3 -2 2 1 1 1 1 3 2 0 1 1 2 2 0 -0 -0 -1 -1 -1 -1 -1
-4 -3 -3 -3 1 -1 5 5 3 3 5 1 0 9 5 4 -2 -4 -3 -1 -3 1 2 1 1 -1 0 1 1 3 2 2 2 1 1 1 1 1 -0 0 -2 -1 -1
1 -1 0 -2 -0 4 -1 2 3 2 5 4 -4 1 2 -1 4 5 9 8 2 1 3 -1 -0 -1 -0 -2 1 -0 3 3 3 3 3 2 -0 -1 -2 1 -0 -0 -1
1 0 3 2 4 1 0 1 1 -0 4 1 -1 7 2 2 3 -0 3 4 4 3 -2 2 0 1 0 -2 -2 -2 2 3 2 1 0 1 1 0 -1 -1 -1 -1 -0
-4 -2 -3 1 4 2 1 4 2 8 1 5 3 3 -4 5 5 3 0 2 4 -1 -0 2 3 6 4 -2 -3 -5 -2 2 1 2 0 -0 1 1 0 -1 1 2 8
-2 -2 -3 -5 -6 -5 -2 -1 -1 7 2 1 8 10 4 3 5 11 2 4 3 -2 2 4 6 8 4 1 -3 -0 -1 3 0 -0 1 1 1 -0 -1 -1 -3 -5 1
2 3 0 0 0 2 2 0 -2 -1 -1 1 10 3 0 4 3 13 6 2 -1 3 3 4 3 9 6 1 -3 7 -4 3 2 -1 -0 1 1 0 -1 -1 -2 -4 -1
-4 -2 -3 3 -2 5 4 1 -2 1 -3 1 2 4 1 7 -1 -1 3 1 5 3 2 3 2 6 10 0 1 -7 2 2 3 2 1 -1 -1 -2 -3 -1 -1 -6 -10
-8 -3 3 7 8 5 -1 -4 -2 0 2 -8 -3 3 7 5 1 4 -1 4 2 1 2 3 2 8 -5 -1 17 -2 2 -0 2 2 -1 -2 -2 -2 -1 -0 -3 -3 -6
-5 -5 2 2 5 13 9 0 -1 3 -6 -3 -11 -6 3 -2 10 3 3 1 3 -1 1 4 2 2 -5 -8 4 7 -4 3 1 1 2 1 1 -0 -1 -1 -2 -1 -6
2 -3 -5 14 2 7 4 3 -2 0 -0 2 -6 -3 1 5 12 7 3 2 -1 -1 3 3 2 -8 -7 -5 14 -0 4 0 2 1 0 -2 -2 -5 -0 -1 -1 -1 -2
-9 -9 -0 -0 7 7 -0 -3 1 -8 -5 2 2 4 4 4 -7 7 7 -3 0 4 0 4 0 1 2 1 8 2 4 2 -1 1 -0 -7 -5 -2 -2 -1 -1 0 0
-0 -2 -10 3 -12 1 5 5 1 2 -6 -6 -5 -2 12 14 9 -6 5 4 7 4 5 2 20 29 13 5 4 9 4 1 -2 -2 -6 -3 -3 -1 -0 1 0 -0 1
-0 -1 0 -3 -4 -9 -6 -7 -7 -7 -4 -4 10 6 9 11 4 -8 -2 1 -2 2 -11 5 9 24 8 14 -4 5 3 -3 -5 -1 -2 -3 -2 -2 -0 -2 0 -0 -1
-2 -4 -1 2 -7 2 -1 -1 -2 1 3 6 1 14 2 4 -6 -17 10 1 7 13 16 18 9 14 5 8 0 -6 -1 -2 1 -4 -1 -2 -2 -3 -1 -1 -2 -1 -4
-2 -6 1 -1 2 1 -2 -1 0 -3 -3 -5 0 -0 -3 1 21 4 4 14 9 0 7 -4 -4 2 0 0 -2 1 2 -1 -0 -1 2 -2 -2 0 -0 0 0 1 2
-0 -1 -1 -2 -3 -6 -2 -9 -4 3 11 6 -1 5 1 19 -6 2 21 -17 7 7 -0 7 -3 -1 3 8 3 -2 2 -1 -2 0 0 -2 2 1 -2 -1 1 3 1
-5 -3 -1 -3 1 4 -1 2 -1 -6 2 -1 21 23 10 9 7 16 10 7 6 2 -8 3 7 4 -7 -2 2 1 -3 -3 -1 1 -2 -2 0 -1 -1 -1 -2 0 2
-3 -4 -4 -3 -3 1 1 3 7 10 12 5 -0 5 5 -3 -3 8 -7 -2 -6 4 -4 7 -1 -4 -5 -2 2 1 -2 0 4 -7 -4 -0 1 2 1 -4 -3 -1 -0
-0 -1 2 -0 2 -1 0 3 0 -0 5 4 13 12 5 6 -2 7 0 12 11 0 -1 -1 -0 2 2 1 -1 -2 -2 1 -2 1 4 2 1 -1 -2 -3 -2 -2 -2
-4 -3 4 -1 1 -1 2 2 1 0 -1 5 4 3 3 1 1 -2 -3 1 -2 0 -0 -2 -5 -3 -2 -0 -2 -2 -4 -2 4 2 1 -2 -3 -2 -1 -0 -1 -2 -2
0 -1 -5 -4 -2 -3 -1 -3 2 -1 -2 -3 -1 -3 -3 -2 1 1 -1 2 -2 -2 -2 -4 -4 -2 -4 -3 -3 2 3 -0 -2 -2 -1 -2 -1 0 0 -1 -1 -1 -2
-1 -0 0 2 1 -4 -6 -1 -2 -1 -2 -2 -2 0 -0 -1 -1 -3 -3 -4 -6 -6 -5 -4 -3 2 1 4 4 -1 -3 -3 -1 -2 -2 -1 1 0 1 1 -1 -2 -2
-2 -1 -1 1 0 1 -2 -2 -0 0 -0 1 -2 -3 -2 -4 -5 -4 -1 -1 -3 -2 1 1 2 3 1 -1 -3 -2 -1 0 0 -1 -1 -0 -1 -1 -0 -1 -3 -2 -1
-2 -1 -1 -2 3 -3 -1 0 -1 1 2 -1 -3 -2 -1 1 -0 -2 -3 -2 -1 1 3 3 -0 -2 -1 -1 1 0 -2 -1 -0 0 2 1 0 0 -1 -0 -0 -2 -0
Height
3084 3083 3085 3088 3090 3092 3097 3100 3101 3103 3104 3106 3109 3111 3114 3117 3119 3121 3122 3125 3126 3127 3128 3129 3129 3129 3129 3128 3127 3127 3126 3125 3125 3125 3124 3123 3121 3120 3119 3118 3116 3114 3112
3073 3076 3078 3080 3081 3084 3086 3089 3091 3095 3097 3099 3102 3104 3107 3109 3113 3114 3116 3118 3120 3122 3122 3123 3123 3124 3124 3124 3123 3121 3121 3121 3121 3121 3120 3119 3118 3116 3114 3113 3111 3109 3107
3065 3068 3070 3073 3075 3076 3079 3081 3082 3085 3089 3092 3095 3096 3098 3100 3103 3105 3108 3111 3114 3116 3117 3117 3118 3118 3118 3118 3118 3117 3116 3116 3117 3117 3116 3114 3113 3111 3110 3108 3106 3103 3101
3059 3061 3063 3064 3066 3067 3070 3072 3075 3076 3078 3081 3083 3087 3087 3091 3095 3100 3102 3105 3107 3109 3111 3111 3111 3112 3112 3112 3112 3112 3112 3111 3111 3112 3111 3109 3108 3106 3105 3103 3100 3097 3094
3055 3057 3058 3058 3058 3059 3060 3062 3064 3066 3068 3069 3073 3078 3080 3081 3086 3091 3094 3096 3098 3101 3103 3105 3105 3105 3106 3106 3106 3106 3107 3106 3106 3106 3105 3105 3103 3101 3099 3097 3094 3091 3087
3049 3049 3049 3050 3051 3051 3052 3052 3053 3056 3058 3060 3062 3065 3069 3074 3077 3081 3084 3088 3091 3094 3096 3098 3099 3100 3099 3100 3100 3099 3101 3101 3101 3100 3099 3098 3096 3094 3091 3089 3087 3084 3082
3043 3043 3042 3042 3043 3043 3044 3046 3046 3048 3050 3050 3051 3056 3058 3064 3068 3073 3076 3079 3083 3086 3089 3091 3092 3092 3093 3093 3094 3094 3095 3094 3094 3094 3093 3091 3088 3086 3083 3080 3077 3074 3072
3037 3037 3036 3035 3035 3035 3036 3037 3038 3040 3042 3043 3043 3046 3049 3053 3060 3064 3068 3071 3074 3077 3081 3083 3084 3086 3086 3087 3087 3086 3087 3086 3087 3087 3086 3083 3081 3078 3075 3071 3067 3062 3059
3030 3029 3028 3027 3027 3027 3028 3028 3028 3030 3031 3033 3034 3036 3039 3044 3050 3056 3059 3062 3065 3069 3072 3074 3076 3078 3080 3080 3080 3079 3080 3078 3079 3079 3077 3076 3073 3070 3067 3062 3057 3051 3044
3023 3020 3019 3017 3017 3017 3018 3018 3018 3019 3020 3021 3023 3024 3028 3034 3041 3045 3048 3052 3056 3061 3063 3066 3067 3070 3072 3072 3070 3071 3071 3071 3071 3071 3070 3068 3065 3062 3057 3052 3047 3041 3035
3012 3010 3008 3006 3006 3008 3007 3008 3010 3010 3011 3011 3013 3016 3017 3023 3029 3034 3039 3044 3048 3052 3055 3058 3059 3063 3063 3064 3064 3063 3063 3063 3063 3064 3062 3060 3057 3053 3048 3043 3038 3032 3025
2998 2993 2996 2996 2997 2998 2998 2998 3000 3002 3003 3004 3005 3007 3010 3014 3019 3025 3031 3035 3039 3044 3048 3050 3053 3053 3056 3056 3054 3052 3055 3056 3056 3056 3054 3051 3047 3044 3039 3033 3027 3021 3015
2987 2982 2980 2979 2985 2986 2987 2990 2991 2992 2994 2995 2996 2998 3001 3006 3009 3017 3023 3027 3032 3036 3040 3043 3045 3047 3047 3047 3047 3047 3048 3048 3048 3047 3045 3042 3038 3034 3028 3022 3016 3010 3004
2979 2974 2971 2972 2973 2977 2979 2980 2983 2984 2984 2986 2990 2992 2994 2999 3002 3010 3015 3021 3026 3028 3032 3034 3033 3031 3036 3035 3039 3041 3041 3042 3041 3039 3036 3032 3028 3022 3016 3011 3005 2999 2993
2974 2970 2967 2965 2965 2970 2972 2973 2974 2974 2976 2978 2982 2984 2986 2991 2995 3002 3007 3012 3016 3019 3022 3026 3024 3027 3027 3030 3030 3034 3035 3035 3033 3030 3026 3021 3016 3011 3005 2999 2993 2987 2980
2967 2965 2963 2963 2964 2965 2966 2966 2966 2966 2968 2970 2974 2977 2981 2985 2990 2996 3002 3006 3010 3013 3012 3014 3019 3021 3023 3024 3025 3027 3028 3026 3023 3019 3015 3010 3005 3000 2995 2989 2982 2975 2967
2964 2960 2959 2959 2959 2958 2959 2958 2954 2956 2959 2962 2966 2970 2977 2982 2986 2993 2997 2999 3001 3004 3009 3012 3010 3017 3020 3020 3020 3020 3019 3017 3014 3010 3005 3001 2996 2990 2985 2978 2970 2964 2957
2965 2961 2959 2959 2958 2957 2956 2951 2949 2949 2954 2958 2961 2965 2973 2977 2985 2990 2990 2994 2999 3004 3008 3005 3009 3013 3015 3015 3014 3013 3011 3008 3004 3000 2996 2992 2986 2980 2973 2966 2958 2952 2945
2965 2962 2961 2959 2956 2955 2952 2950 2949 2949 2947 2953 2961 2968 2974 2979 2984 2984 2988 2988 2998 3001 3002 3004 3007 3009 3010 3009 3008 3006 3003 2999 2996 2992 2987 2981 2975 2968 2961 2953 2945 2940 2935
2967 2964 2961 2959 2957 2956 2954 2953 2951 2952 2955 2961 2964 2970 2973 2978 2981 2979 2991 2996 2998 2998 3000 3003 3004 3004 3004 3003 3001 2998 2994 2990 2988 2983 2977 2971 2963 2956 2949 2941 2934 2929 2924
2970 2967 2965 2963 2960 2960 2957 2956 2957 2958 2959 2963 2966 2970 2976 2979 2983 2985 2990 2993 2997 2998 2997 2998 2998 2998 2996 2995 2993 2990 2987 2984 2980 2974 2967 2959 2951 2944 2937 2930 2925 2920 2916
2976 2972 2972 2970 2968 2966 2966 2967 2965 2966 2969 2972 2975 2978 2981 2985 2987 2991 2991 2991 2994 2995 2995 2995 2994 2993 2991 2989 2987 2984 2979 2973 2967 2960 2954 2946 2939 2933 2927 2922 2918 2913 2909
2982 2980 2979 2978 2977 2975 2975 2975 2975 2976 2979 2982 2984 2985 2987 2988 2990 2991 2990 2993 2992 2991 2992 2991 2989 2988 2987 2983 2978 2973 2967 2961 2955 2948 2942 2934 2927 2922 2918 2914 2910 2907 2903
2987 2984 2983 2983 2983 2982 2983 2983 2983 2983 2985 2987 2988 2988 2989 2990 2990 2990 2990 2990 2990 2989 2988 2987 2984 2981 2977 2973 2969 2964 2959 2952 2945 2937 2930 2923 2917 2913 2911 2908 2904 2901 2897
2990 2989 2988 2987 2987 2987 2987 2988 2987 2986 2987 2988 2988 2987 2988 2988 2988 2988 2988 2987 2986 2985 2982 2980 2977 2973 2969 2966 2961 2955 2948 2941 2934 2928 2920 2914 2910 2907 2905 2902 2900 2897 2894
2991 2990 2990 2989 2989 2989 2989 2989 2989 2989 2990 2989 2988 2988 2988 2988 2987 2986 2985 2984 2983 2981 2978 2974 2971 2967 2963 2958 2952 2945 2938 2931 2923 2917 2911 2908 2905 2903 2902 2900 2896 2893 2890